CW1459 Weather Reports


time (UTC)temp
F
wind
direction
speed
knots
gust
knots
rain 1hr
in
rain 24hr
in
rain mn
in
humidity
%
barometer
mb
20260510112338 51 270 0.9 1.7 0.00 0.03 0.00 96 1011.2
20260510111314 50 156 0.0 0.9 0.00 0.03 0.00 95 1011.1
20260510110314 49 156 0.0 0.9 0.00 0.03 0.00 95 1010.9
20260510105316 49 156 0.0 0.9 0.00 0.03 0.00 95 1010.8
20260510104315 49 156 0.9 1.7 0.00 0.03 0.00 95 1010.7
20260510103336 49 149 0.0 1.7 0.00 0.03 0.00 95 1010.7
20260510102312 49 9 0.9 1.7 0.00 0.03 0.00 95 1010.6
20260510101313 49 9 0.9 2.6 0.00 0.03 0.00 95 1010.5
20260510100313 49 103 0.0 2.6 0.00 0.03 0.00 95 1010.4
20260510095312 49 88 1.7 2.6 0.00 0.03 0.00 95 1010.6
20260510094315 49 81 1.7 3.5 0.00 0.03 0.00 95 1010.6
20260510093331 48 100 0.9 4.3 0.00 0.03 0.00 95 1010.5
20260510092332 48 12 2.6 4.3 0.00 0.03 0.00 95 1010.5
20260510091355 47 12 0.9 3.5 0.00 0.03 0.00 95 1010.0
20260510090335 47 202 0.0 0.0 0.00 0.03 0.00 94 1009.4
20260510085335 47 202 0.9 1.7 0.00 0.03 0.00 94 1009.2
20260510084318 47 202 0.0 0.9 0.00 0.03 0.00 94 1009.3
20260510083335 47 202 0.0 0.9 0.00 0.03 0.00 94 1009.2
20260510082320 47 202 0.0 0.9 0.00 0.03 0.00 94 1009.2
20260510081321 47 202 1.7 2.6 0.00 0.03 0.00 94 1009.2
20260510080322 48 202 0.0 0.0 0.00 0.03 0.00 94 1009.4
20260510075339 48 202 0.0 1.7 0.00 0.03 0.00 93 1009.5
20260510074319 48 167 0.9 1.7 0.00 0.03 0.00 93 1009.2
20260510073316 48 167 0.9 1.7 0.00 0.03 0.00 93 1009.2
20260510072340 48 167 0.0 2.6 0.00 0.03 0.00 93 1009.5
20260510071317 48 71 0.9 2.6 0.00 0.03 0.00 93 1009.6
20260510070319 48 5 0.9 2.6 0.00 0.03 0.00 92 1009.7
20260510065359 49 334 0.9 3.5 0.00 0.03 0.00 93 1009.7
20260510064331 49 332 2.6 4.3 0.00 0.03 0.00 93 1009.7
20260510063332 49 113 1.7 2.6 0.00 0.03 0.00 93 1009.4
20260510062315 49 115 2.6 8.7 0.00 0.03 0.00 93 1009.6
20260510061318 49 119 0.0 1.7 0.00 0.03 0.00 92 1009.3
20260510060343 49 119 0.0 0.9 0.00 0.03 0.00 92 1009.1
20260510055318 50 119 0.0 1.7 0.00 0.03 0.00 92 1009.1
20260510054320 49 119 0.0 0.9 0.00 0.03 0.00 92 1009.1
20260510053317 49 119 0.0 1.7 0.00 0.03 0.00 91 1009.1
20260510052319 49 119 0.9 1.7 0.00 0.03 0.00 91 1009.0
20260510051341 50 119 0.9 1.7 0.00 0.03 0.00 91 1008.8
20260510050319 50 119 0.0 0.9 0.00 0.03 0.00 91 1008.7
20260510045316 50 119 0.0 0.9 0.00 0.03 0.00 90 1008.7
20260510044317 50 119 0.0 1.7 0.00 0.03 0.00 90 1008.6
20260510043317 51 119 0.9 2.6 0.00 0.03 0.00 90 1008.7
20260510042332 51 119 0.0 2.6 0.00 0.03 0.00 90 1008.8
20260510041319 51 119 1.7 2.6 0.00 0.03 0.00 90 1008.7
20260510040349 51 119 0.0 1.7 0.00 0.03 0.00 89 1008.8
20260510035319 51 119 1.7 2.6 0.00 0.03 0.03 89 1008.7
20260510034340 51 119 0.0 1.7 0.00 0.03 0.03 88 1008.7
20260510033316 52 119 0.0 1.7 0.00 0.03 0.03 88 1008.7
20260510032330 52 119 0.0 0.0 0.00 0.03 0.03 87 1008.8
20260510031335 53 119 0.0 1.7 0.00 0.03 0.03 87 1008.7
20260510030319 53 119 0.0 0.9 0.00 0.03 0.03 86 1008.8
20260510025317 53 119 0.9 1.7 0.00 0.03 0.03 85 1008.8
20260510024337 54 119 0.0 3.5 0.00 0.03 0.03 85 1008.7
20260510023317 54 309 0.9 3.5 0.00 0.03 0.03 84 1008.7
20260510022315 54 144 1.7 2.6 0.00 0.03 0.03 83 1008.5
20260510021339 55 144 0.9 1.7 0.00 0.03 0.03 81 1008.4
20260510020338 55 267 0.9 1.7 0.00 0.03 0.03 80 1008.2
20260510015357 56 151 1.7 1.7 0.00 0.03 0.03 81 1008.0
20260510014354 57 151 0.0 0.9 0.00 0.03 0.03 79 1008.0
20260510013323 57 151 0.0 0.9 0.00 0.03 0.03 78 1007.9
20260510012327 58 151 1.7 2.6 0.00 0.03 0.03 78 1007.7
20260510011339 58 151 0.0 0.9 0.00 0.03 0.03 76 1007.5
20260510010339 59 151 0.0 0.0 0.00 0.03 0.03 74 1007.4
20260510005338 60 151 0.0 1.7 0.00 0.03 0.03 72 1007.3
20260510004321 61 195 0.0 1.7 0.00 0.03 0.03 71 1007.0
20260510003336 62 126 0.9 2.6 0.00 0.03 0.03 68 1007.0
20260510002332 63 269 0.9 1.7 0.00 0.03 0.03 66 1006.9
20260510001330 65 269 0.9 5.2 0.00 0.03 0.03 62 1006.8
20260510000337 67 166 0.9 6.1 0.00 0.03 0.03 59 1006.8
20260509235317 68 123 2.6 4.3 0.00 0.03 0.03 59 1006.8
20260509234341 69 159 2.6 6.1 0.00 0.03 0.03 56 1006.7
20260509233359 70 147 2.6 4.3 0.00 0.03 0.03 56 1006.7
20260509232325 70 168 1.7 6.1 0.00 0.03 0.03 55 1006.7
20260509231337 70 309 0.0 1.7 0.00 0.03 0.03 51 1006.8
20260509230354 70 309 1.7 3.5 0.00 0.03 0.03 51 1006.9
20260509225317 70 298 0.9 3.5 0.00 0.03 0.03 53 1006.9
20260509224336 70 303 2.6 3.5 0.00 0.03 0.03 54 1006.9
20260509223337 70 244 1.7 4.3 0.00 0.03 0.03 53 1006.8
20260509222400 70 223 1.7 3.5 0.00 0.03 0.03 52 1006.9
20260509221340 72 308 2.6 3.5 0.00 0.03 0.03 54 1006.8
20260509220336 71 12 0.9 2.6 0.00 0.03 0.03 53 1006.8
20260509215320 71 253 1.7 5.2 0.00 0.03 0.03 52 1006.8
20260509214333 71 331 1.7 4.3 0.00 0.03 0.03 52 1006.7
20260509213314 71 330 2.6 6.1 0.00 0.03 0.03 55 1006.8
20260509212356 70 330 2.6 4.3 0.00 0.03 0.03 50 1006.9
20260509211319 71 30 1.7 4.3 0.00 0.03 0.03 53 1006.9
20260509210324 70 23 1.7 4.3 0.00 0.03 0.03 53 1007.0
20260509205328 70 5 1.7 4.3 0.00 0.03 0.03 54 1007.0
20260509204330 69 103 3.5 6.1 0.01 0.03 0.03 53 1007.3
20260509203323 68 113 0.9 2.6 0.01 0.03 0.03 58 1007.4
20260509202319 67 110 2.6 3.5 0.01 0.03 0.03 57 1007.4
20260509201322 67 108 1.7 4.3 0.01 0.03 0.03 56 1007.3
20260509200327 67 125 1.7 3.5 0.01 0.03 0.03 56 1007.4
20260509195326 67 163 3.5 6.1 0.01 0.03 0.03 55 1007.4
20260509194336 67 163 1.7 7.0 0.00 0.02 0.02 56 1007.5
20260509193338 68 67 4.3 7.0 0.00 0.02 0.02 55 1007.5
20260509192329 68 162 2.6 7.0 0.00 0.02 0.02 55 1007.4
20260509191330 69 196 3.5 9.6 0.00 0.02 0.02 53 1007.5
20260509190314 70 107 3.5 10.4 0.00 0.02 0.02 52 1007.4
20260509185339 69 28 1.7 8.7 0.00 0.02 0.02 53 1007.5
20260509184359 69 172 3.5 7.8 0.00 0.02 0.02 55 1007.6
20260509183338 68 156 1.7 8.7 0.00 0.02 0.02 57 1007.6
20260509182319 68 184 1.7 7.8 0.00 0.02 0.02 56 1007.9
20260509181323 68 192 0.9 7.0 0.00 0.02 0.02 62 1008.0
20260509180334 65 114 0.9 3.5 0.00 0.02 0.02 66 1008.2
20260509175353 65 332 2.6 4.3 0.00 0.02 0.02 64 1008.5
20260509174354 65 334 0.9 4.3 0.00 0.02 0.02 65 1008.8
20260509173337 65 117 1.7 3.5 0.00 0.02 0.02 67 1009.0
20260509172347 64 300 1.7 4.3 0.00 0.02 0.02 69 1009.2
20260509171355 61 305 1.7 2.6 0.00 0.02 0.02 71 1009.4
20260509170358 61 302 0.9 2.6 0.00 0.02 0.02 71 1009.5
20260509165318 60 335 0.9 4.3 0.00 0.02 0.02 74 1009.4
20260509164320 60 338 2.6 4.3 0.00 0.02 0.02 73 1009.4
20260509163319 61 345 1.7 3.5 0.00 0.02 0.02 74 1009.0
20260509162336 61 339 1.7 3.5 0.00 0.02 0.02 73 1009.2
20260509161333 60 340 0.9 2.6 0.00 0.02 0.02 74 1009.5
20260509160337 60 346 0.9 1.7 0.00 0.02 0.02 75 1009.5
20260509155315 60 84 0.9 5.2 0.00 0.02 0.02 72 1009.5
20260509154318 60 104 0.9 4.3 0.00 0.02 0.02 74 1009.7
20260509153351 60 351 1.7 3.5 0.00 0.02 0.02 73 1009.6
20260509152333 61 12 1.7 4.3 0.00 0.02 0.02 75 1009.6
20260509151335 61 328 3.5 7.0 0.00 0.02 0.02 76 1009.7
20260509150335 60 50 0.9 3.5 0.00 0.02 0.02 77 1009.7
20260509145338 59 25 0.9 3.5 0.00 0.02 0.02 85 1009.9
20260509144330 57 346 1.7 4.3 0.00 0.02 0.02 87 1009.7
20260509143315 56 53 1.7 3.5 0.00 0.02 0.02 88 1009.6
20260509142326 56 11 1.7 2.6 0.00 0.02 0.02 88 1009.7
20260509141333 56 360 1.7 3.5 0.00 0.02 0.02 89 1009.4
20260509140359 55 346 0.9 2.6 0.00 0.02 0.02 88 1009.4
20260509135319 55 79 0.0 0.9 0.01 0.02 0.02 88 1009.5
20260509134320 55 96 0.0 0.9 0.02 0.02 0.02 88 1009.7
20260509133333 54 96 0.0 1.7 0.02 0.02 0.02 87 1009.8
20260509132312 55 87 0.0 1.7 0.02 0.02 0.02 86 1009.6
20260509131335 55 78 0.0 1.7 0.02 0.02 0.02 85 1009.6
20260509130334 55 71 0.9 2.6 0.02 0.02 0.02 84 1009.6
20260509125313 55 9 0.9 2.6 0.01 0.01 0.01 83 1009.5
20260509124340 55 360 0.9 1.7 0.00 0.00 0.00 81 1009.6
20260509123334 56 40 0.9 1.7 0.00 0.00 0.00 78 1009.6
20260509122326 56 19 0.9 2.6 0.00 0.00 0.00 76 1009.7
20260509121313 56 84 0.9 1.7 0.00 0.00 0.00 75 1009.9
20260509120336 56 84 0.9 2.6 0.00 0.00 0.00 76 1009.8
20260509115312 55 49 1.7 4.3 0.00 0.00 0.00 78 1009.6
20260509114321 55 31 0.9 3.5 0.00 0.00 0.00 77 1009.6
20260509113333 56 11 0.9 2.6 0.00 0.00 0.00 77 1009.5